This demonstration page uses our WeatherBlox Daily Observations layout. Learn more.

41.55636, -103.73856

Hourly Observations for June 9, 2020

Temp ( °F °C ) Dew Point ( °F °C ) Humidity (%) Winds ( mph kmh ) Pressure ( in mb ) Visibility ( mi km ) Precip ( " mm )
12:58 am 00:58 Mostly Cloudy 70 21.1 32 -0.1 24 24 NNE 18 30 29.66 1004 10 16.0934 0 0
1:58 am 01:58 Mostly Cloudy 56 13.1 44 6.6 65 65 NNW 23 37 29.74 1007 10 16.0934 0.02 0.508
2:58 am 02:58 Windy with Rain Showers Likely 49 9.7 44 6.5 81 81 NW 32 52 29.81 1009 10 16.0934 0.01 0.254
3:58 am 03:58 Windy with Rain Showers Likely 47 8.5 43 6 84 84 NW 29 46 29.84 1010 10 16.0934 0 0
4:58 am 04:58 Mostly Cloudy 47 8.1 42 5.4 83 83 NW 28 44 29.85 1011 10 16.0934 0 0
5:58 am 05:58 Mostly Cloudy 46 8 41 5 82 82 NW 30 48 29.86 1011 10 16.0934 0 0
6:58 am 06:58 Cloudy with Rain 46 7.6 42 5.7 88 88 N 25 41 29.84 1011 10 16.0934 0.02 0.508
7:58 am 07:58 Cloudy with Rain 46 7.6 43 6 90 90 NNW 21 33 29.85 1011 10 16.0934 0.15 3.81
8:58 am 08:58 Mostly Cloudy with Rain 46 7.5 44 6.7 95 95 NNW 20 31 29.88 1012 10 16.0934 0.15 3.81
9:58 am 09:58 Mostly Cloudy with Rain 46 7.9 43 6.2 89 89 N 30 48 29.84 1011 9 14.48406 0.2 5.08
10:58 am 10:58 Mostly Cloudy with Light Rain 44 6.8 41 4.9 88 88 N 23 37 29.83 1010 10 16.0934 0.02 0.508
11:58 am 11:58 Windy with Rain Showers Likely 46 7.9 41 5.1 83 83 N 25 41 29.86 1011 10 16.0934 0 0
12:58 pm 12:58 Cloudy with Light Rain 46 7.6 44 6.4 92 92 NNW 25 41 29.92 1013 8 12.87472 0.04 1.016
1:58 pm 13:58 Mostly Cloudy with Light Rain 45 7.1 42 5.6 90 90 NNW 25 41 29.97 1015 10 16.0934 0.04 1.016
2:58 pm 14:58 Cloudy with Light Rain 46 8 43 6 87 87 NNW 20 31 29.99 1016 10 16.0934 0.02 0.508
3:58 pm 15:58 Mostly Cloudy 47 8.2 41 5.2 82 82 NNW 26 43 29.98 1015 10 16.0934 0 0
4:58 pm 16:58 Mostly Cloudy 49 9.3 40 4.6 73 73 NNW 29 46 29.98 1015 10 16.0934 0.01 0.254
5:58 pm 17:58 Partly Cloudy 51 10.4 38 3.1 61 61 NNW 30 48 30 1016 10 16.0934 0 0
6:58 pm 18:58 Mostly Sunny 53 11.7 37 2.9 55 55 NNW 26 43 30 1016 10 16.0934 0 0
7:58 pm 19:58 Mostly Sunny 56 13.2 37 2.7 49 49 N 28 44 29.98 1015 10 16.0934 0 0
8:58 pm 20:58 Mostly Sunny 59 15.2 38 3.4 45 45 N 26 43 29.96 1015 10 16.0934 0 0
9:58 pm 21:58 Partly Cloudy 64 17.8 31 -0.6 29 29 NNW 33 54 29.92 1013 10 16.0934 0 0
10:58 pm 22:58 Sunny 64 18 27 -2.8 24 24 N 26 43 29.93 1014 10 16.0934 0 0
11:58 pm 23:58 Sunny 64 18 28 -2.3 25 25 N 25 41 29.91 1013 10 16.0934 0 0

Powered by AerisWeather